TimeCDT,TemperatureF,Dew PointF,Humidity,Sea Level PressureIn,VisibilityMPH,Wind Direction,Wind SpeedMPH,Gust SpeedMPH,PrecipitationIn,Events,Conditions,WindDirDegrees,DateUTC
12:15 AM,24.8,19.4,80,30.23,10.0,WSW,4.6,-,N/A,,Overcast,240,2012-10-27 05:15:00
12:35 AM,24.8,19.4,80,30.23,10.0,WSW,3.5,-,N/A,,Overcast,250,2012-10-27 05:35:00
12:55 AM,24.8,21.2,86,30.23,10.0,Calm,Calm,-,N/A,,Overcast,0,2012-10-27 05:55:00
1:15 AM,24.8,21.2,86,30.23,10.0,Calm,Calm,-,N/A,,Overcast,0,2012-10-27 06:15:00
1:35 AM,24.8,19.4,80,30.23,10.0,NW,3.5,-,N/A,,Overcast,310,2012-10-27 06:35:00
1:55 AM,24.8,19.4,80,30.22,10.0,NNW,5.8,-,N/A,,Overcast,330,2012-10-27 06:55:00
2:15 AM,24.8,19.4,80,30.22,10.0,North,4.6,-,N/A,,Overcast,350,2012-10-27 07:15:00
2:55 AM,24.8,19.4,80,30.22,10.0,NW,4.6,-,N/A,,Overcast,310,2012-10-27 07:55:00
3:15 AM,24.8,19.4,80,30.23,10.0,WNW,3.5,-,N/A,,Overcast,290,2012-10-27 08:15:00
3:35 AM,24.8,19.4,80,30.23,10.0,SW,3.5,-,N/A,,Overcast,230,2012-10-27 08:35:00
3:55 AM,24.8,19.4,80,30.23,10.0,West,3.5,-,N/A,,Overcast,270,2012-10-27 08:55:00
4:15 AM,24.8,19.4,80,30.22,10.0,WNW,4.6,-,N/A,,Overcast,300,2012-10-27 09:15:00
4:35 AM,24.8,19.4,80,30.22,10.0,WNW,3.5,-,N/A,,Overcast,290,2012-10-27 09:35:00
4:55 AM,24.8,19.4,80,30.22,10.0,NW,3.5,-,N/A,,Overcast,310,2012-10-27 09:55:00
5:15 AM,24.8,19.4,80,30.22,10.0,NW,3.5,-,N/A,,Overcast,310,2012-10-27 10:15:00
5:35 AM,23.0,19.4,86,30.22,10.0,NW,3.5,-,N/A,,Overcast,310,2012-10-27 10:35:00
5:55 AM,23.0,19.4,86,30.23,10.0,NW,4.6,-,N/A,,Overcast,320,2012-10-27 10:55:00
6:15 AM,21.2,17.6,86,30.23,10.0,NNW,4.6,-,N/A,,Overcast,340,2012-10-27 11:15:00
6:55 AM,19.4,15.8,86,30.23,10.0,North,6.9,-,N/A,,Mostly Cloudy,360,2012-10-27 11:55:00
7:15 AM,17.6,15.8,93,30.23,10.0,North,6.9,-,N/A,,Scattered Clouds,350,2012-10-27 12:15:00
7:35 AM,17.6,15.8,93,30.24,10.0,NNW,6.9,-,N/A,,Mostly Cloudy,340,2012-10-27 12:35:00
7:55 AM,17.6,15.8,93,30.24,10.0,NNW,5.8,-,N/A,,Overcast,330,2012-10-27 12:55:00
8:15 AM,17.6,15.8,93,30.25,10.0,NNW,5.8,-,N/A,,Overcast,330,2012-10-27 13:15:00
8:35 AM,17.6,15.8,93,30.25,10.0,NNW,6.9,-,N/A,,Overcast,340,2012-10-27 13:35:00
8:55 AM,17.6,15.8,93,30.26,10.0,North,8.1,-,N/A,,Overcast,350,2012-10-27 13:55:00
9:15 AM,17.6,15.8,93,30.26,10.0,North,4.6,-,N/A,,Overcast,350,2012-10-27 14:15:00
9:35 AM,17.6,15.8,93,30.27,10.0,North,5.8,-,N/A,,Overcast,360,2012-10-27 14:35:00
9:55 AM,19.4,15.8,86,30.27,10.0,North,5.8,-,N/A,,Overcast,360,2012-10-27 14:55:00
10:35 AM,19.4,15.8,86,30.27,10.0,North,8.1,-,N/A,,Mostly Cloudy,360,2012-10-27 15:35:00
10:55 AM,21.2,14.0,74,30.27,10.0,North,6.9,-,N/A,,Partly Cloudy,10,2012-10-27 15:55:00
11:15 AM,23.0,12.2,63,30.27,10.0,North,8.1,-,N/A,,Partly Cloudy,10,2012-10-27 16:15:00
11:35 AM,24.8,12.2,59,30.27,10.0,NNE,6.9,-,N/A,,Clear,20,2012-10-27 16:35:00
11:55 AM,24.8,10.4,54,30.27,10.0,NNE,6.9,-,N/A,,Clear,20,2012-10-27 16:55:00
12:15 PM,26.6,10.4,51,30.27,10.0,NE,5.8,-,N/A,,Clear,50,2012-10-27 17:15:00
12:35 PM,24.8,10.4,54,30.26,10.0,NNE,3.5,-,N/A,,Clear,30,2012-10-27 17:35:00
12:55 PM,26.6,10.4,51,30.26,10.0,NNW,5.8,-,N/A,,Clear,340,2012-10-27 17:55:00
1:15 PM,26.6,10.4,51,30.25,10.0,North,6.9,-,N/A,,Clear,350,2012-10-27 18:15:00
1:35 PM,26.6,10.4,51,30.24,10.0,North,4.6,-,N/A,,Clear,360,2012-10-27 18:35:00
1:55 PM,26.6,10.4,51,30.24,10.0,North,4.6,-,N/A,,Clear,350,2012-10-27 18:55:00
2:15 PM,26.6,10.4,51,30.24,10.0,North,3.5,-,N/A,,Clear,350,2012-10-27 19:15:00
2:35 PM,28.4,10.4,47,30.24,10.0,Calm,Calm,-,N/A,,Clear,0,2012-10-27 19:35:00
2:55 PM,28.4,10.4,47,30.23,10.0,NNW,6.9,-,N/A,,Clear,340,2012-10-27 19:55:00
3:15 PM,28.4,12.2,51,30.23,10.0,NNE,4.6,-,N/A,,Clear,30,2012-10-27 20:15:00
3:35 PM,28.4,12.2,51,30.23,10.0,NNW,3.5,-,N/A,,Clear,330,2012-10-27 20:35:00
3:55 PM,28.4,10.4,47,30.22,10.0,Calm,Calm,-,N/A,,Clear,0,2012-10-27 20:55:00
4:15 PM,28.4,10.4,47,30.23,10.0,Calm,Calm,-,N/A,,Clear,0,2012-10-27 21:15:00
4:35 PM,28.4,12.2,51,30.23,10.0,NNW,5.8,-,N/A,,Clear,340,2012-10-27 21:35:00
5:15 PM,28.4,10.4,47,30.23,10.0,Calm,Calm,-,N/A,,Clear,0,2012-10-27 22:15:00
5:35 PM,28.4,12.2,51,30.23,10.0,NW,3.5,-,N/A,,Clear,320,2012-10-27 22:35:00
5:55 PM,26.6,12.2,55,30.23,10.0,NNW,4.6,-,N/A,,Clear,330,2012-10-27 22:55:00
6:15 PM,24.8,12.2,59,30.23,10.0,North,4.6,-,N/A,,Clear,350,2012-10-27 23:15:00
6:35 PM,23.0,14.0,68,30.23,10.0,North,3.5,-,N/A,,Clear,360,2012-10-27 23:35:00
6:55 PM,23.0,14.0,68,30.24,10.0,North,3.5,-,N/A,,Clear,360,2012-10-27 23:55:00
7:15 PM,21.2,14.0,74,30.24,10.0,NNE,4.6,-,N/A,,Clear,20,2012-10-28 00:15:00
7:35 PM,19.4,12.2,74,30.24,10.0,NNE,5.8,-,N/A,,Clear,30,2012-10-28 00:35:00
7:55 PM,17.6,14.0,86,30.24,10.0,NE,3.5,-,N/A,,Clear,50,2012-10-28 00:55:00
8:15 PM,15.8,12.2,86,30.24,10.0,Calm,Calm,-,N/A,,Clear,0,2012-10-28 01:15:00
8:35 PM,17.6,12.2,79,30.24,10.0,East,3.5,-,N/A,,Clear,90,2012-10-28 01:35:00
8:55 PM,17.6,12.2,79,30.25,10.0,Calm,Calm,-,N/A,,Scattered Clouds,0,2012-10-28 01:55:00
9:15 PM,17.6,12.2,79,30.25,10.0,SE,4.6,-,N/A,,Mostly Cloudy,130,2012-10-28 02:15:00
9:35 PM,17.6,12.2,79,30.25,10.0,SE,3.5,-,N/A,,Mostly Cloudy,140,2012-10-28 02:35:00
9:55 PM,17.6,12.2,79,30.25,10.0,SE,3.5,-,N/A,,Partly Cloudy,140,2012-10-28 02:55:00
10:15 PM,17.6,10.4,73,30.25,10.0,SSE,4.6,-,N/A,,Clear,160,2012-10-28 03:15:00
10:35 PM,17.6,10.4,73,30.25,10.0,Calm,Calm,-,N/A,,Clear,0,2012-10-28 03:35:00
10:55 PM,15.8,10.4,79,30.25,10.0,SE,3.5,-,N/A,,Partly Cloudy,140,2012-10-28 03:55:00
11:35 PM,15.8,12.2,86,30.24,10.0,ENE,3.5,-,N/A,,Overcast,60,2012-10-28 04:35:00
11:55 PM,15.8,12.2,86,30.24,10.0,East,3.5,-,N/A,,Mostly Cloudy,80,2012-10-28 04:55:00